Regional Weather Roundup
Issued by NWS Portland, ME

Home | Current Version | Previous Version | Text Only | Print | Product List | Glossary On
Versions: 1 2 3 4 5 6 7 8 9 10 11 12 13 14 15 16 17 18 19 20 21 22 23 24 25 26 27 28 29 30 31 32 33 34 35 36 37 38 39 40 41 42 43 44 45 46 47 48 49 50
855
ASUS41 KGYX 242210
RWRGYX
WEATHER ROUNDUP FOR MAINE AND NEW HAMPSHIRE
NATIONAL WEATHER SERVICE GRAY ME
500 PM EST SAT FEB 24 2018

MEZ002-005-006-010-012-015-018-020-021-024-026-027-029-242300-
MAINE

CITY           SKY/WX    TMP DP  RH WIND       PRES   REMARKS
PORTLAND       MOCLDY    45  27  49 NE6       30.16R
SANFORD        FAIR      45  28  51 W6        30.16R
BAR HARBOR     FAIR      42  24  49 NW9G17    30.12R
WISCASSET      FAIR      43  28  55 VRB6      30.16R
ROCKLAND       FAIR      43  26  51 NW7       30.13R
FRYEBURG       FAIR      40  26  57 W5        30.15R
LEWISTONAUBURN FAIR      41  25  53 NW9G20    30.16R
AUGUSTA        FAIR      40  25  55 N12       30.15R
WATERVILLE     FAIR      39  24  55 VRB5      30.10R
BANGOR         MOCLDY    41  24  51 W10       30.12R
GREENVILLE       N/A     31  19  61 NW16G25   30.07R WCI  20
MILLINOCKET    FAIR      36  20  52 W14G23    30.10R
HOULTON        MOCLDY    36  19  50 NW10      30.05R
PRESQUE ISLE   FAIR      34  12  40 NW12      30.08R
FRENCHVILLE    FAIR      27   8  44 N17G24    30.06R WCI  14
CARIBOU        FAIR      32  13  45 NW10      30.05R
$$

NHZ002-005-008-009-011-012-014-242300-
NEW HAMPSHIRE

CITY           SKY/WX    TMP DP  RH WIND       PRES   REMARKS
PORTSMOUTH     CLOUDY    46  29  52 NW9G18    30.15R
ROCHESTER      FAIR      45  29  53 NW12      30.15R
NASHUA         CLOUDY    48  33  56 N8        30.17R
MANCHESTER     CLOUDY    46  30  53 N15       30.15R
CONCORD        FAIR      43  31  62 NW12      30.17R
LACONIA        FAIR      41  26  55 W6        30.17R
PLYMOUTH       FAIR      40  27  60 NW6       30.17R
BERLIN         CLOUDY    36  25  64 VRB3      30.14R
WHITEFIELD     FAIR      37  25  61 NW10      30.16R
JAFFREY        MOCLDY    45  32  60 MISG      30.15R
KEENE          MOCLDY    45  31  58 N10       30.16R
LEBANON        MOCLDY    41  30  65 N9        30.17R
MT WASHINGTON  FOG       12  12 100 W47G56      N/A  VSB 1/16WCI -13
$$

VTZ005-007-008-242300-
VERMONT

CITY           SKY/WX    TMP DP  RH WIND       PRES   REMARKS
ST JOHNSBURY     N/A     37  25  61 MISG      30.17R
MONTPELIER     MOCLDY    36  28  73 NW8       30.21R
BURLINGTON     MOCLDY    37  25  61 NE10      30.23R
$$

MAZ007-012-024-CTZ003-RIZ002-NYZ038-NYZ072-242300-
SOUTHERN NEW ENGLAND AND NY

CITY           SKY/WX    TMP DP  RH WIND       PRES   REMARKS
BOSTON         CLOUDY    51  32  48 NW7       30.16R
WORCESTER      CLOUDY    44  31  60 W7        30.14R
NANTUCKET      LGT RAIN  45  43  93 NW6       30.19R
PROVIDENCE     LGT RAIN  47  43  86 SW7       30.16R
HARTFORD       LGT RAIN  44  38  79 W5        30.17S
ALBANY         CLOUDY    43  30  60 W6        30.20R
NEW YORK CITY  CLOUDY    48  41  76 NW10      30.18S
$$

ANZ081-ANZ082-ANZ150-NHZ014-MEZ023>029-242300-
COASTAL MARINE OBSERVATIONS

STATION/POSITION TIME  TEMP    WIND        PRES    WAVE
                       AIR SEA DIR/SP/G            HT/PER
                 (UTC) (F)     (DEG/KT/KT) (MB)    (FT/S)
MOUNT DESERT ROC 2200   43     300/ 16/ 17 1019.4R
MATINICUS ROCK   2200   43     320/ 17/ 19 1019.5R
ISLE OF SHOALS   2200   46     320/ 18/ 19 1021.1R
JEFFREYS LEDGE   2136      42                N/A     2/ 4
GEORGES BANK BUO 2050   52 57              1003.2   12/ 9
$$

.............KEY..............
   WCI - WIND CHILL
   TC  - TEMPERATURE IN CELSIUS
   VSB - VISIBILITY IN MILES
   HX  - HEAT INDEX
   FAIR- INDICATES FEW OR NO CLOUDS BELOW 12,000 FT, WITH NO
         SIGNIFICANT WEATHER AND/OR OBSTRUCTIONS TO VISIBILITY.






USA.gov is the U.S. government's official web portal to all federal, state and local government web resources and services.